Weather Roundup
Issued by NWS Corpus Christi, TX

Home | Current Version | Previous Version | Text Only | Print | Product List | Glossary On
Versions: 1 2 3 4 5 6 7 8 9 10 11 12 13 14 15 16 17 18 19 20 21 22 23 24 25 26 27 28 29 30 31 32 33 34 35 36 37 38 39 40 41 42 43 44 45 46 47 48 49 50
000
ASUS44 KCRP 042310
HRRCRP

SOUTH TEXAS REGIONAL WEATHER ROUNDUP
NATIONAL WEATHER SERVICE CORPUS CHRISTI TX
600 PM CDT WED MAY 04 2016


TXZ229>244-050000-
...CORPUS CHRISTI AREA OBSERVATIONS...

CITY           SKY/WX    TMP DP  RH WIND       PRES   REMARKS
CORPUS CHRISTI MOSUNNY   88  48  25 NE8G18    29.97F
NAS CORPUS CHR MOSUNNY   78  60  53 SE13      29.97F
ROCKPORT       SUNNY     79  56  45 SE10      29.97F
KINGSVILLE NAS MOSUNNY   88  52  29 NE7       29.96F
ALICE          SUNNY     90  41  18 N7        29.96F
FALFURRIAS     SUNNY     91  39  16 NE6       29.96S
$$

...VICTORIA AREA OBSERVATIONS...

CITY           SKY/WX    TMP DP  RH WIND       PRES   REMARKS
VICTORIA       SUNNY     85  53  33 W10       29.97F
BEEVILLE       FAIR      88  48  24 NW9G17    29.97S
PLEASANTON     SUNNY     87  48  25 NW5       29.98F
SAN ANTONIO    MOSUNNY   86  47  25 N8        29.99F
$$

...LAREDO AREA OBSERVATIONS...

CITY           SKY/WX    TMP DP  RH WIND       PRES   REMARKS
LAREDO         SUNNY     89  47  23 W3        29.97F
COTULLA        SUNNY     91  35  13 VRB6      29.97F
DEL RIO        SUNNY     87  43  21 VRB3      29.99F
MCALLEN        SUNNY     91  47  21 SE12      29.97F
HEBBRONVILLE   SUNNY     91  34  13 W3        29.98S
$$

...OTHER TEXAS OBSERVATIONS...

CITY           SKY/WX    TMP DP  RH WIND       PRES   REMARKS
BROWNSVILLE    SUNNY     80  56  43 E7        30.01F
HOUSTON        SUNNY     81  51  35 NW15G22   29.95F
COL. STATION   SUNNY     83  52  34 N10       29.96F
AUSTIN         SUNNY     85  50  29 NW5       29.97F
WACO           SUNNY     82  47  29 NW12      29.98S
FORT WORTH     SUNNY     82  47  29 NW14      29.97S
WICHITA FALLS  SUNNY     83  44  25 NW10      29.99F
LUBBOCK        SUNNY     82  27  13 N9G18     30.10F
EL PASO        MOSUNNY   84  22  10 MISG      30.08F
$$

...MARINE OBSERVATIONS...

STATION/POSITION TIME  SKY/WX   TEMP    WIND        PRES    VSBY  WAVE   SWELL
                                AIR SEA DIR/SP/G                  HT/PER HT/PER
                 (UTC)          (F)     (DEG/KT/KT) (MB)    (MI)  (FT/S) (FT/S)
PORT ARANSAS     2300            74 78  110/ 12/ 13 1016.1F
BUOY 90 E PORT A 2250            74 77  250/  2/  2 1015.6F         3/ 5   2/ 5
BUOY 45 SE BAFFI 2250            73 75   60/  8/ 10 1015.6F         3/ 5   2/ 5
BUOY 200 E PT IS 2250                                 N/A           6/ 7
BUOY 15 E GALVES 2250            77 76  320/ 10/ 12 1013.6F         1/ 3
$$



USA.gov is the U.S. government's official web portal to all federal, state and local government web resources and services.